This is the latest recevied weather packets stored in our database for station/object DM4WH-13. If no packets are shown the sender has not sent any weather packets the latest 10 day(s).
| Time | Temp. | Humidity | Pressure | Rain* | Wind** | Luminosity | Snow |
|---|---|---|---|---|---|---|---|
| 1777580711 | 7.22° C | 69% | 1031 hPa | 0 mm | 0 m/s | - | - |
| 1777580424 | 7.22° C | 69% | 1031.1 hPa | 0 mm | 0 m/s | - | - |
| 1777580111 | 7.22° C | 68% | 1031.1 hPa | 0 mm | 0 m/s | - | - |
| 1777579824 | 7.78° C | 67% | 1031.1 hPa | 0 mm | 0 m/s | - | - |
| 1777579511 | 7.78° C | 66% | 1031.1 hPa | 0 mm | 0 m/s | - | - |
| 1777579224 | 7.78° C | 67% | 1031.1 hPa | 0 mm | 0 m/s | - | - |
| 1777578915 | 7.78° C | 68% | 1031.1 hPa | 0 mm | 0 m/s | - | - |
| 1777578624 | 7.78° C | 66% | 1031.2 hPa | 0 mm | 0 m/s | - | - |
| 1777578311 | 7.78° C | 64% | 1031.2 hPa | 0 mm | 0 m/s | - | - |
| 1777578024 | 7.78° C | 65% | 1031 hPa | 0 mm | 0 m/s | - | - |
| 1777577711 | 8.89° C | 64% | 1030.9 hPa | 0 mm | 0.45 m/s, 24° | - | - |
| 1777577424 | 8.89° C | 61% | 1030.9 hPa | 0 mm | 0 m/s | - | - |
| 1777577112 | 8.89° C | 61% | 1030.9 hPa | 0 mm | 0 m/s | - | - |
| 1777576824 | 8.89° C | 59% | 1030.9 hPa | 0 mm | 0 m/s | - | - |
| 1777576511 | 8.89° C | 59% | 1030.9 hPa | 0 mm | 0 m/s | - | - |
| 1777576224 | 10° C | 58% | 1030.9 hPa | 0 mm | 0 m/s | - | - |
| 1777575911 | 10° C | 59% | 1030.9 hPa | 0 mm | 0 m/s | - | - |
| 1777575624 | 10° C | 59% | 1030.9 hPa | 0 mm | 0 m/s | - | - |
| 1777575311 | 10° C | 56% | 1030.9 hPa | 0 mm | 0 m/s | - | - |
| 1777575036 | 11.11° C | 52% | 1030.9 hPa | 0 mm | 0 m/s | - | - |
| 1777574724 | 11.11° C | 54% | 1030.9 hPa | 0 mm | 0 m/s | - | - |
| 1777574411 | 11.11° C | 51% | 1030.9 hPa | 0 mm | 0 m/s | - | - |
| 1777574124 | 11.11° C | 52% | 1030.8 hPa | 0 mm | 0 m/s | - | - |
| 1777573811 | 12.22° C | 51% | 1030.8 hPa | 0 mm | 0 m/s | - | - |
| 1777573524 | 12.22° C | 49% | 1030.8 hPa | 0 mm | 0 m/s | - | - |
* Rain latest hour (hover to see other rain measurements)
** Current wind speed in m/s (hover to see current wind gust speed)